When you browse on this site, cookies collect data to enhance your experience and personalize the content and advertising you see.
Visit our Privacy Policy to learn more. By continuing to use the site, you agree to this use of cookies and data.
  • In Slovakia
  • List of Countries
  • For 7 days
  • Water Temperature
  • Satellite Maps
  • Weather Map
  • Weather Widgets
  • user-avatar
    Login

    Hourly Weather Urkutamahi 1

    Today, 27 June, Thursday

    Time Temperature Precipitation Wind Pressure Humidity
    00:00 +14°C° 0.4 mm 1 mps 620 mmHg 81%
    01:00 +14°C° 0.2 mm 1 mps 619 mmHg 80%
    02:00 +13°C° 0.2 mm 2 mps 619 mmHg 80%
    03:00 +13°C° 0.2 mm 2 mps 619 mmHg 79%
    04:00 +14°C° 0 mm 1 mps 619 mmHg 77%
    05:00 +15°C° 0 mm 1 mps 620 mmHg 76%
    06:00 +16°C° 0 mm 1 mps 620 mmHg 74%
    07:00 +18°C° 0.3 mm 1 mps 621 mmHg 73%
    08:00 +18°C° 0.3 mm 2 mps 621 mmHg 72%
    09:00 +19°C° 0.3 mm 2 mps 621 mmHg 72%
    10:00 +19°C° 1.4 mm 2 mps 621 mmHg 73%
    11:00 +19°C° 1.4 mm 2 mps 621 mmHg 74%
    12:00 +19°C° 1.4 mm 2 mps 620 mmHg 75%
    13:00 +19°C° 1 mm 2 mps 620 mmHg 73%
    14:00 +20°C° 1 mm 2 mps 620 mmHg 70%
    15:00 +21°C° 1 mm 1 mps 620 mmHg 68%
    16:00 +20°C° 0.4 mm 1 mps 619 mmHg 72%
    17:00 +20°C° 0.4 mm 1 mps 619 mmHg 77%
    18:00 +19°C° 0.4 mm 1 mps 618 mmHg 81%
    19:00 +18°C° 0.1 mm 1 mps 618 mmHg 81%
    20:00 +16°C° 0.1 mm 1 mps 617 mmHg 81%
    21:00 +14°C° 0.1 mm 1 mps 617 mmHg 81%
    22:00 +14°C° 0 mm 2 mps 616 mmHg 80%
    23:00 +14°C° 0 mm 2 mps 616 mmHg 78%

    Tomorrow, 28 June, Friday

    Time Temperature Precipitation Wind Pressure Humidity
    00:00 +14°C° 0 mm 2 mps 616 mmHg 77%
    01:00 +13°C° 0 mm 2 mps 616 mmHg 76%
    02:00 +13°C° 0 mm 2 mps 615 mmHg 75%
    03:00 +13°C° 0 mm 2 mps 615 mmHg 73%
    04:00 +14°C° 0 mm 2 mps 615 mmHg 74%
    05:00 +15°C° 0 mm 2 mps 615 mmHg 74%
    06:00 +16°C° 0 mm 2 mps 616 mmHg 74%
    07:00 +18°C° 0 mm 2 mps 616 mmHg 69%
    08:00 +19°C° 0 mm 2 mps 617 mmHg 65%
    09:00 +21°C° 0 mm 2 mps 617 mmHg 60%
    10:00 +21°C° 0.2 mm 2 mps 617 mmHg 61%
    11:00 +23°C° 0.2 mm 2 mps 616 mmHg 62%
    12:00 +23°C° 0.2 mm 2 mps 616 mmHg 63%
    13:00 +23°C° 0.7 mm 2 mps 616 mmHg 64%
    14:00 +23°C° 0.7 mm 2 mps 615 mmHg 65%
    15:00 +21°C° 0.7 mm 2 mps 615 mmHg 66%
    16:00 +21°C° 0.4 mm 2 mps 614 mmHg 70%
    17:00 +21°C° 0.4 mm 1 mps 614 mmHg 74%
    18:00 +20°C° 0.4 mm 1 mps 613 mmHg 78%
    19:00 +19°C° 0 mm 1 mps 613 mmHg 78%
    20:00 +18°C° 0 mm 1 mps 613 mmHg 77%
    21:00 +16°C° 0 mm 2 mps 613 mmHg 77%
    22:00 +15°C° 0.3 mm 2 mps 613 mmHg 76%
    23:00 +15°C° 0.3 mm 2 mps 612 mmHg 76%

    Day after tomorrow, 29 June, Saturday

    Time Temperature Precipitation Wind Pressure Humidity
    00:00 +15°C° 0.3 mm 2 mps 612 mmHg 76%
    01:00 +15°C° 0.5 mm 2 mps 612 mmHg 78%
    02:00 +15°C° 0.5 mm 1 mps 612 mmHg 80%
    03:00 +14°C° 0.5 mm 1 mps 612 mmHg 82%
    04:00 +15°C° 0.2 mm 1 mps 613 mmHg 82%
    05:00 +15°C° 0.2 mm 1 mps 613 mmHg 83%
    06:00 +15°C° 0.2 mm 0 mps 613 mmHg 84%
    07:00 +18°C° 0.1 mm 1 mps 613 mmHg 83%
    08:00 +18°C° 0.1 mm 2 mps 614 mmHg 82%
    09:00 +19°C° 0.1 mm 2 mps 614 mmHg 81%
    10:00 +18°C° 1.1 mm 2 mps 614 mmHg 83%
    11:00 +18°C° 1.1 mm 2 mps 614 mmHg 85%
    12:00 +18°C° 1.1 mm 2 mps 614 mmHg 88%
    13:00 +17°C° 1.2 mm 2 mps 613 mmHg 89%
    14:00 +17°C° 1.2 mm 2 mps 613 mmHg 91%
    15:00 +16°C° 1.2 mm 2 mps 613 mmHg 93%
    16:00 +16°C° 1.5 mm 2 mps 613 mmHg 94%
    17:00 +16°C° 1.5 mm 1 mps 612 mmHg 95%
    18:00 +15°C° 1.5 mm 1 mps 612 mmHg 96%
    19:00 +15°C° 0.6 mm 1 mps 613 mmHg 96%
    20:00 +15°C° 0.6 mm 1 mps 613 mmHg 97%
    21:00 +13°C° 0.6 mm 0 mps 613 mmHg 98%
    22:00 +14°C° 3.7 mm 1 mps 613 mmHg 98%
    23:00 +14°C° 3.7 mm 1 mps 613 mmHg 98%

    30 June, Sunday

    Time Temperature Precipitation Wind Pressure Humidity
    00:00 +13°C° 3.7 mm 1 mps 613 mmHg 98%
    01:00 +13°C° 1.5 mm 1 mps 613 mmHg 98%
    02:00 +12°C° 1.5 mm 1 mps 613 mmHg 98%
    03:00 +12°C° 1.5 mm 2 mps 613 mmHg 98%
    04:00 +12°C° 0.3 mm 2 mps 613 mmHg 97%
    05:00 +10°C° 0.3 mm 2 mps 613 mmHg 96%
    06:00 +10°C° 0.3 mm 2 mps 613 mmHg 96%
    07:00 +10°C° 1 mm 2 mps 613 mmHg 94%
    08:00 +11°C° 1 mm 1 mps 613 mmHg 92%
    09:00 +10°C° 1 mm 1 mps 614 mmHg 91%
    10:00 +10°C° 0.1 mm 2 mps 614 mmHg 87%
    11:00 +12°C° 0.1 mm 2 mps 614 mmHg 83%
    12:00 +13°C° 0.1 mm 2 mps 615 mmHg 79%
    13:00 +13°C° 0.1 mm 2 mps 614 mmHg 82%
    14:00 +12°C° 0.1 mm 2 mps 614 mmHg 85%
    15:00 +12°C° 0.1 mm 2 mps 614 mmHg 87%
    16:00 +12°C° 0.7 mm 2 mps 614 mmHg 90%
    17:00 +10°C° 0.7 mm 2 mps 614 mmHg 92%
    18:00 +10°C° 0.7 mm 2 mps 614 mmHg 95%
    19:00 +9°C° 3 mm 2 mps 614 mmHg 96%
    20:00 +9°C° 3 mm 2 mps 614 mmHg 96%
    21:00 +10°C° 3 mm 1 mps 614 mmHg 97%
    22:00 +9°C° 2.2 mm 1 mps 614 mmHg 97%
    23:00 +9°C° 2.2 mm 1 mps 615 mmHg 98%

    1 July, Monday

    Time Temperature Precipitation Wind Pressure Humidity
    00:00 +9°C° 2.2 mm 1 mps 615 mmHg 98%
    01:00 +8°C° 2.7 mm 2 mps 615 mmHg 98%
    02:00 +7°C° 2.7 mm 2 mps 614 mmHg 98%
    03:00 +7°C° 2.7 mm 3 mps 614 mmHg 98%
    04:00 +6°C° 2.2 mm 2 mps 614 mmHg 98%
    05:00 +6°C° 2.2 mm 2 mps 614 mmHg 97%
    06:00 +6°C° 2.2 mm 1 mps 614 mmHg 96%
    07:00 +6°C° 2.1 mm 1 mps 614 mmHg 95%
    08:00 +7°C° 2.1 mm 1 mps 614 mmHg 95%
    09:00 +7°C° 2.1 mm 1 mps 614 mmHg 94%
    10:00 +7°C° 1.6 mm 1 mps 615 mmHg 93%
    11:00 +7°C° 1.6 mm 1 mps 615 mmHg 93%
    12:00 +7°C° 1.6 mm 1 mps 615 mmHg 92%
    13:00 +7°C° 0.7 mm 1 mps 615 mmHg 91%
    14:00 +8°C° 0.7 mm 1 mps 615 mmHg 90%
    15:00 +8°C° 0.7 mm 1 mps 615 mmHg 89%
    16:00 +8°C° 0.1 mm 1 mps 615 mmHg 89%
    17:00 +8°C° 0.1 mm 1 mps 615 mmHg 90%
    18:00 +8°C° 0.1 mm 1 mps 615 mmHg 90%
    19:00 +8°C° 0.2 mm 1 mps 615 mmHg 91%
    20:00 +8°C° 0.2 mm 1 mps 616 mmHg 92%
    21:00 +7°C° 0.2 mm 1 mps 616 mmHg 94%
    22:00 +7°C° 0.2 mm 1 mps 616 mmHg 94%
    23:00 +7°C° 0.2 mm 1 mps 616 mmHg 94%

    2 July, Tuesday

    Time Temperature Precipitation Wind Pressure Humidity
    00:00 +7°C° 0.2 mm 1 mps 616 mmHg 94%
    01:00 +5°C° 0.2 mm 2 mps 616 mmHg 91%
    02:00 +5°C° 0.2 mm 2 mps 616 mmHg 89%
    03:00 +5°C° 0.2 mm 2 mps 616 mmHg 86%
    04:00 +6°C° 0 mm 2 mps 616 mmHg 84%
    05:00 +6°C° 0 mm 2 mps 617 mmHg 81%
    06:00 +7°C° 0 mm 2 mps 617 mmHg 79%
    07:00 +9°C° 0 mm 2 mps 618 mmHg 73%
    08:00 +11°C° 0 mm 1 mps 619 mmHg 66%
    09:00 +13°C° 0 mm 1 mps 619 mmHg 60%
    10:00 +14°C° 0 mm 2 mps 619 mmHg 60%
    11:00 +14°C° 0 mm 2 mps 620 mmHg 60%
    12:00 +15°C° 0 mm 2 mps 620 mmHg 61%
    13:00 +16°C° 0 mm 3 mps 620 mmHg 62%
    14:00 +16°C° 0 mm 3 mps 620 mmHg 63%
    15:00 +16°C° 0 mm 3 mps 620 mmHg 64%
    16:00 +16°C° 0 mm 2 mps 619 mmHg 68%
    17:00 +15°C° 0 mm 2 mps 619 mmHg 72%
    18:00 +14°C° 0 mm 1 mps 619 mmHg 77%
    19:00 +13°C° 0 mm 1 mps 618 mmHg 78%
    20:00 +12°C° 0 mm 2 mps 618 mmHg 79%
    21:00 +9°C° 0 mm 2 mps 618 mmHg 81%
    22:00 +9°C° 0 mm 2 mps 617 mmHg 77%
    23:00 +9°C° 0 mm 2 mps 617 mmHg 74%
    Show more